Weather History for Nome, AK

Change the Weather History Date:

Wednesday, September 7, 2011

  Actual Average Record
Temperature  
Mean Temperature 44 °F 46 °F  
Max Temperature 50 °F 52 °F 66 °F (1997)
Min Temperature 38 °F 40 °F 25 °F (1987)
Degree Days  
Heating Degree Days 21 19  
Month to date heating degree days 119 125  
Since 1 July heating degree days 1135 989  
Cooling Degree Days 0    
Month to date cooling degree days 0  
Year to date cooling degree days 0  
Moisture  
Dew Point 30 °F    
Average Humidity 0    
Maximum Humidity 0    
Minimum Humidity 0    
Precipitation  
Precipitation 0.00 in 0.09 in 0.94 in (1946)
Month to date precipitation T 0.64  
Year to date precipitation 13.34 11.09  
Snow  
Snow 0.00 in 0.00 in 0.20 in (1987)
Month to date snowfall 0.0 0.0  
Since 1 July snowfall 0.0 0.0  
Since 1 September snowfall 0.0 0.0  
Snow Depth 0.00 in    
Sea Level Pressure  
Sea Level Pressure 29.68 in    
Wind  
Wind Speed 17 mph (North)    
Max Wind Speed 30 mph    
Max Gust Speed 38 mph    
Visibility 10 miles    
Events      
T = Trace of Precipitation, MM = Missing Value Source: NWS Daily Summary

Daily Weather History Graph

Daily Weather History Graph

Search for Another Location

Airport:

Trip Planner

Search our weather history database for the weather conditions in past years. The results will help you decide how hot, cold, wet, or windy it might be!

Date:

Astronomy

Sep. 07, 2011 Rise Set
Actual Time 8:00 AM AKDT 9:56 PM AKDT
Civil Twilight 7:08 AM AKDT 10:48 PM AKDT
Nautical Twilight 5:59 AM AKDT 11:56 PM AKDT
Astronomical Twilight 4:15 AM AKDT 1:35 AM AKDT
Moon 8:39 PM AKDT (9/7) 1:49 AM AKDT (9/7)
Length of Visible Light 15h 39m
Length of Day
13h 56m
Waxing Gibbous, 81% of the Moon is Illuminated
Sep 7
Waxing Gibbous
Sep 12
Full
Sep 20
Last Quarter
Sep 27
New
Oct 3
First Quarter

Hourly Weather History & Observations

Time (AKDT) Temp. Windchill Dew Point Humidity Pressure Visibility Wind Dir Wind Speed Gust Speed Precip Events Conditions
12:53 AM 41.0 °F 33.9 °F 32.0 °F 70% 29.47 in 10.0 mi North 12.7 mph 20.7 mph N/A   Clear
1:53 AM 41.0 °F 32.2 °F 32.0 °F 70% 29.48 in 10.0 mi North 18.4 mph 26.5 mph N/A   Clear
2:53 AM 41.0 °F 31.6 °F 32.0 °F 70% 29.50 in 10.0 mi North 20.7 mph 27.6 mph N/A   Clear
3:53 AM 39.9 °F 31.1 °F 32.0 °F 73% 29.53 in 10.0 mi North 17.3 mph 25.3 mph N/A   Clear
4:53 AM 39.9 °F 30.2 °F 30.9 °F 70% 29.55 in 10.0 mi North 20.7 mph 31.1 mph N/A   Clear
5:53 AM 39.0 °F 28.8 °F 30.9 °F 73% 29.57 in 10.0 mi North 21.9 mph 27.6 mph N/A   Clear
6:53 AM 39.0 °F 29.3 °F 30.0 °F 70% 29.59 in 10.0 mi North 19.6 mph 27.6 mph N/A   Partly Cloudy
7:53 AM 39.0 °F 29.6 °F 30.0 °F 70% 29.61 in 10.0 mi North 18.4 mph 26.5 mph N/A   Scattered Clouds
8:53 AM 39.0 °F 30.6 °F 30.0 °F 70% 29.63 in 10.0 mi North 15.0 mph 27.6 mph N/A   Scattered Clouds
9:53 AM 41.0 °F 38.0 °F 28.9 °F 62% 29.65 in 10.0 mi Variable 4.6 mph - N/A   Scattered Clouds
10:53 AM 43.0 °F 34.5 °F 30.0 °F 60% 29.68 in 10.0 mi North 19.6 mph 26.5 mph N/A   Scattered Clouds
11:53 AM 44.1 °F 37.1 °F 30.0 °F 58% 29.70 in 10.0 mi North 15.0 mph 21.9 mph N/A   Clear
12:53 PM 46.0 °F 39.0 °F 30.0 °F 54% 29.71 in 10.0 mi North 17.3 mph 31.1 mph N/A   Scattered Clouds
1:53 PM 48.0 °F - 28.9 °F 48% 29.72 in 10.0 mi North 21.9 mph 29.9 mph N/A   Scattered Clouds
2:53 PM 48.9 °F - 28.0 °F 44% 29.72 in 10.0 mi North 23.0 mph 31.1 mph N/A   Scattered Clouds
3:53 PM 50.0 °F - 28.0 °F 43% 29.73 in 10.0 mi North 23.0 mph 32.2 mph N/A   Scattered Clouds
4:53 PM 50.0 °F - 28.0 °F 43% 29.74 in 10.0 mi North 21.9 mph 33.4 mph N/A   Scattered Clouds
5:53 PM 48.9 °F - 28.0 °F 44% 29.76 in 10.0 mi North 20.7 mph 31.1 mph N/A   Scattered Clouds
6:53 PM 46.9 °F - 28.9 °F 50% 29.78 in 10.0 mi NNW 23.0 mph 32.2 mph N/A   Scattered Clouds
7:53 PM 46.0 °F 38.5 °F 28.0 °F 50% 29.81 in 10.0 mi North 19.6 mph - N/A   Scattered Clouds
8:53 PM 44.1 °F 37.1 °F 30.0 °F 58% 29.83 in 10.0 mi North 15.0 mph 25.3 mph N/A   Scattered Clouds
9:53 PM 41.0 °F 34.7 °F 30.0 °F 65% 29.86 in 10.0 mi North 10.4 mph - N/A   Scattered Clouds
10:53 PM 39.9 °F 34.5 °F 28.9 °F 65% 29.88 in 10.0 mi North 8.1 mph 19.6 mph N/A   Scattered Clouds
11:53 PM 37.9 °F 30.5 °F 30.0 °F 73% 29.90 in 10.0 mi North 11.5 mph - N/A   Scattered Clouds